Time,TemperatureF,DewpointF,PressureIn,WindDirection,WindDirectionDegrees,WindSpeedMPH,WindSpeedGustMPH,Humidity,HourlyPrecipIn,Conditions,Clouds,dailyrainin,SoftwareType,DateUTC
2013-02-01 00:09:00,28.6,15.3,29.56,WSW,247,1.1,-999.0,57,-99.99,,,0.00,Acu-Link.com,2013-02-01 05:09:00,
2013-02-01 00:25:00,28.6,15.3,29.57,WNW,292,4.2,-999.0,57,-99.99,,,0.00,Acu-Link.com,2013-02-01 05:25:00,
2013-02-01 00:40:00,28.8,15.9,29.57,SW,225,3.2,-999.0,58,-99.99,,,0.00,Acu-Link.com,2013-02-01 05:40:00,
2013-02-01 00:55:00,29.1,16.6,29.57,SW,225,2.2,-999.0,59,-99.99,,,0.00,Acu-Link.com,2013-02-01 05:55:00,
2013-02-01 01:10:00,28.9,17.2,29.57,SSW,202,2.7,-999.0,61,-99.99,,,0.00,Acu-Link.com,2013-02-01 06:10:00,
2013-02-01 01:25:00,28.8,18.5,29.58,SW,225,4.7,-999.0,65,-99.99,,,0.00,Acu-Link.com,2013-02-01 06:25:00,
2013-02-01 01:40:00,28.2,18.7,29.59,ESE,112,2.7,-999.0,67,-99.99,,,0.00,Acu-Link.com,2013-02-01 06:40:00,
2013-02-01 01:55:00,27.9,19.1,29.60,SSE,157,4.2,-999.0,69,-99.99,,,0.00,Acu-Link.com,2013-02-01 06:55:00,
2013-02-01 02:10:00,27.3,18.5,29.60,NNW,337,4.7,-999.0,69,-99.99,,,0.00,Acu-Link.com,2013-02-01 07:10:00,
2013-02-01 02:25:00,27.5,18.7,29.61,SW,225,0.0,-999.0,69,-99.99,,,0.00,Acu-Link.com,2013-02-01 07:25:00,
2013-02-01 02:41:00,27.3,17.8,29.61,South,180,3.7,-999.0,67,-99.99,,,0.00,Acu-Link.com,2013-02-01 07:41:00,
2013-02-01 02:56:00,26.8,17.7,29.61,WSW,247,1.7,-999.0,68,-99.99,,,0.00,Acu-Link.com,2013-02-01 07:56:00,
2013-02-01 03:11:00,26.4,17.0,29.61,SSE,157,2.7,-999.0,67,-99.99,,,0.00,Acu-Link.com,2013-02-01 08:11:00,
2013-02-01 03:26:00,26.1,16.0,29.63,SE,135,2.7,-999.0,65,-99.99,,,0.00,Acu-Link.com,2013-02-01 08:26:00,
2013-02-01 03:41:00,25.9,15.1,29.63,SSW,202,2.7,-999.0,63,-99.99,,,0.00,Acu-Link.com,2013-02-01 08:41:00,
2013-02-01 03:56:00,25.7,14.1,29.64,West,270,3.2,-999.0,61,-99.99,,,0.00,Acu-Link.com,2013-02-01 08:56:00,
2013-02-01 04:17:00,26.2,14.2,29.64,NW,315,3.7,-999.0,60,-99.99,,,0.00,Acu-Link.com,2013-02-01 09:17:00,
2013-02-01 04:32:00,25.5,13.2,29.64,WSW,247,2.7,-999.0,59,-99.99,,,0.00,Acu-Link.com,2013-02-01 09:32:00,
2013-02-01 04:47:00,25.3,12.6,29.64,South,180,2.2,-999.0,58,-99.99,,,0.00,Acu-Link.com,2013-02-01 09:47:00,
2013-02-01 05:02:00,25.0,12.3,29.64,SSW,202,3.7,-999.0,58,-99.99,,,0.00,Acu-Link.com,2013-02-01 10:02:00,
2013-02-01 05:18:00,24.8,12.5,29.64,South,180,1.7,-999.0,59,-99.99,,,0.00,Acu-Link.com,2013-02-01 10:18:00,
2013-02-01 05:33:00,24.6,12.7,29.65,NW,315,2.2,-999.0,60,-99.99,,,0.00,Acu-Link.com,2013-02-01 10:33:00,
2013-02-01 05:48:00,24.4,12.5,29.65,NNW,337,1.7,-999.0,60,-99.99,,,0.00,Acu-Link.com,2013-02-01 10:48:00,
2013-02-01 06:03:00,24.3,12.4,29.66,SW,225,1.7,-999.0,60,-99.99,,,0.00,Acu-Link.com,2013-02-01 11:03:00,
2013-02-01 06:18:00,24.1,12.3,29.67,South,180,1.1,-999.0,60,-99.99,,,0.00,Acu-Link.com,2013-02-01 11:18:00,
2013-02-01 06:33:00,24.3,12.1,29.68,SSW,202,1.7,-999.0,59,-99.99,,,0.00,Acu-Link.com,2013-02-01 11:33:00,
2013-02-01 06:48:00,24.4,12.5,29.69,SSE,157,2.7,-999.0,60,-99.99,,,0.00,Acu-Link.com,2013-02-01 11:48:00,
2013-02-01 07:03:00,24.4,12.9,29.70,SSW,202,4.2,-999.0,61,-99.99,,,0.00,Acu-Link.com,2013-02-01 12:03:00,
2013-02-01 07:18:00,25.0,13.5,29.71,SSW,202,0.0,-999.0,61,-99.99,,,0.00,Acu-Link.com,2013-02-01 12:18:00,
2013-02-01 07:34:00,26.1,14.9,29.72,SE,135,1.1,-999.0,62,-99.99,,,0.00,Acu-Link.com,2013-02-01 12:34:00,
2013-02-01 07:49:00,26.2,15.7,29.73,WSW,247,3.2,-999.0,64,-99.99,,,0.00,Acu-Link.com,2013-02-01 12:49:00,
2013-02-01 08:04:00,26.2,16.1,29.75,SW,225,2.7,-999.0,65,-99.99,,,0.00,Acu-Link.com,2013-02-01 13:04:00,
2013-02-01 08:19:00,27.5,16.9,29.75,WNW,292,2.7,-999.0,64,-99.99,,,0.00,Acu-Link.com,2013-02-01 13:19:00,
2013-02-01 08:34:00,28.9,18.3,29.75,SW,225,1.7,-999.0,64,-99.99,,,0.00,Acu-Link.com,2013-02-01 13:34:00,
2013-02-01 08:49:00,29.1,18.8,29.77,WNW,292,7.3,-999.0,65,-99.99,,,0.00,Acu-Link.com,2013-02-01 13:49:00,
2013-02-01 09:04:00,25.2,21.1,29.78,NNE,22,2.7,-999.0,84,-99.99,,,0.00,Acu-Link.com,2013-02-01 14:04:00,
2013-02-01 09:20:00,28.8,21.9,29.77,NNE,22,3.7,-999.0,75,-99.99,,,0.00,Acu-Link.com,2013-02-01 14:20:00,
2013-02-01 09:35:00,27.5,20.0,29.76,SSE,157,1.7,-999.0,73,-99.99,,,0.00,Acu-Link.com,2013-02-01 14:35:00,
2013-02-01 09:50:00,30.0,20.0,29.75,NNE,22,3.2,-999.0,66,-99.99,,,0.00,Acu-Link.com,2013-02-01 14:50:00,
2013-02-01 10:05:00,31.3,19.0,29.76,North,0,2.2,-999.0,60,-99.99,,,0.00,Acu-Link.com,2013-02-01 15:05:00,
2013-02-01 10:20:00,29.8,16.0,29.76,WSW,247,3.7,-999.0,56,-99.99,,,0.00,Acu-Link.com,2013-02-01 15:20:00,
2013-02-01 10:35:00,32.0,16.8,29.76,North,0,3.2,-999.0,53,-99.99,,,0.00,Acu-Link.com,2013-02-01 15:35:00,
2013-02-01 10:50:00,29.8,15.2,29.77,NW,315,3.2,-999.0,54,-99.99,,,0.00,Acu-Link.com,2013-02-01 15:50:00,
2013-02-01 11:05:00,28.9,16.0,29.77,SSE,157,1.7,-999.0,58,-99.99,,,0.00,Acu-Link.com,2013-02-01 16:05:00,
2013-02-01 11:20:00,28.9,11.2,29.77,East,90,3.7,-999.0,47,-99.99,,,0.00,Acu-Link.com,2013-02-01 16:20:00,
2013-02-01 11:36:00,30.2,10.4,29.76,South,180,1.7,-999.0,43,-99.99,,,0.00,Acu-Link.com,2013-02-01 16:36:00,
2013-02-01 11:51:00,30.4,11.1,29.75,NE,45,2.2,-999.0,44,-99.99,,,0.00,Acu-Link.com,2013-02-01 16:51:00,
2013-02-01 12:06:00,31.5,12.1,29.75,NW,315,7.8,-999.0,44,-99.99,,,0.00,Acu-Link.com,2013-02-01 17:06:00,
2013-02-01 12:21:00,31.1,12.3,29.74,North,0,2.2,-999.0,45,-99.99,,,0.00,Acu-Link.com,2013-02-01 17:21:00,
2013-02-01 12:36:00,32.0,12.1,29.72,West,270,4.2,-999.0,43,-99.99,,,0.00,Acu-Link.com,2013-02-01 17:36:00,
2013-02-01 12:51:00,31.1,11.2,29.73,West,270,5.3,-999.0,43,-99.99,,,0.00,Acu-Link.com,2013-02-01 17:51:00,
2013-02-01 13:07:00,30.4,10.6,29.74,NNE,22,5.8,-999.0,43,-99.99,,,0.00,Acu-Link.com,2013-02-01 18:07:00,
2013-02-01 13:22:00,30.4,11.1,29.74,SSW,202,3.7,-999.0,44,-99.99,,,0.00,Acu-Link.com,2013-02-01 18:22:00,
2013-02-01 13:37:00,30.0,9.2,29.75,North,0,5.8,-999.0,41,-99.99,,,0.00,Acu-Link.com,2013-02-01 18:37:00,
2013-02-01 13:52:00,30.6,9.7,29.75,NW,315,8.3,-999.0,41,-99.99,,,0.00,Acu-Link.com,2013-02-01 18:52:00,
2013-02-01 14:07:00,30.7,9.8,29.75,West,270,3.7,-999.0,41,-99.99,,,0.00,Acu-Link.com,2013-02-01 19:07:00,
2013-02-01 14:22:00,31.5,10.5,29.76,North,0,4.7,-999.0,41,-99.99,,,0.00,Acu-Link.com,2013-02-01 19:22:00,
2013-02-01 14:37:00,30.2,10.4,29.77,NNW,337,4.2,-999.0,43,-99.99,,,0.00,Acu-Link.com,2013-02-01 19:37:00,
2013-02-01 14:52:00,29.3,10.6,29.78,North,0,6.8,-999.0,45,-99.99,,,0.00,Acu-Link.com,2013-02-01 19:52:00,
2013-02-01 15:07:00,28.4,8.8,29.79,NNW,337,3.2,-999.0,43,-99.99,,,0.00,Acu-Link.com,2013-02-01 20:07:00,
2013-02-01 15:23:00,28.6,9.5,29.80,North,0,3.2,-999.0,44,-99.99,,,0.00,Acu-Link.com,2013-02-01 20:23:00,
2013-02-01 15:38:00,28.8,10.2,29.81,WNW,292,3.2,-999.0,45,-99.99,,,0.00,Acu-Link.com,2013-02-01 20:38:00,
2013-02-01 15:53:00,27.9,8.8,29.82,WNW,292,4.2,-999.0,44,-99.99,,,0.00,Acu-Link.com,2013-02-01 20:53:00,
2013-02-01 16:08:00,27.9,9.8,29.82,SW,225,3.7,-999.0,46,-99.99,,,0.00,Acu-Link.com,2013-02-01 21:08:00,
2013-02-01 16:23:00,27.5,9.0,29.84,NNW,337,5.8,-999.0,45,-99.99,,,0.00,Acu-Link.com,2013-02-01 21:23:00,
2013-02-01 16:38:00,27.0,9.5,29.84,SSW,202,2.2,-999.0,47,-99.99,,,0.00,Acu-Link.com,2013-02-01 21:38:00,
2013-02-01 16:53:00,26.8,9.8,29.85,SSE,157,3.7,-999.0,48,-99.99,,,0.00,Acu-Link.com,2013-02-01 21:53:00,
2013-02-01 17:08:00,26.4,9.9,29.85,SSW,202,4.2,-999.0,49,-99.99,,,0.00,Acu-Link.com,2013-02-01 22:08:00,
2013-02-01 17:23:00,25.9,9.4,29.87,NNW,337,6.8,-999.0,49,-99.99,,,0.00,Acu-Link.com,2013-02-01 22:23:00,
2013-02-01 17:39:00,25.7,9.2,29.88,South,180,2.2,-999.0,49,-99.99,,,0.00,Acu-Link.com,2013-02-01 22:39:00,
2013-02-01 17:54:00,25.3,9.7,29.90,SW,225,2.7,-999.0,51,-99.99,,,0.00,Acu-Link.com,2013-02-01 22:54:00,
2013-02-01 18:09:00,25.2,10.1,29.90,WSW,247,3.2,-999.0,52,-99.99,,,0.00,Acu-Link.com,2013-02-01 23:09:00,
2013-02-01 18:24:00,25.2,10.1,29.92,NW,315,3.7,-999.0,52,-99.99,,,0.00,Acu-Link.com,2013-02-01 23:24:00,
2013-02-01 18:39:00,24.6,9.5,29.93,NNE,22,2.7,-999.0,52,-99.99,,,0.00,Acu-Link.com,2013-02-01 23:39:00,
2013-02-01 18:54:00,24.3,9.7,29.94,NNW,337,3.2,-999.0,53,-99.99,,,0.00,Acu-Link.com,2013-02-01 23:54:00,
2013-02-01 19:09:00,24.1,9.1,29.95,SSW,202,3.7,-999.0,52,-99.99,,,0.00,Acu-Link.com,2013-02-02 00:09:00,
2013-02-01 19:24:00,23.9,8.4,29.96,NNW,337,10.4,-999.0,51,-99.99,,,0.00,Acu-Link.com,2013-02-02 00:24:00,
2013-02-01 19:39:00,23.5,7.6,29.97,NE,45,2.7,-999.0,50,-99.99,,,0.00,Acu-Link.com,2013-02-02 00:39:00,
2013-02-01 19:55:00,23.0,7.6,29.98,ESE,112,1.7,-999.0,51,-99.99,,,0.00,Acu-Link.com,2013-02-02 00:55:00,
2013-02-01 20:10:00,22.5,7.6,29.99,NW,315,1.1,-999.0,52,-99.99,,,0.00,Acu-Link.com,2013-02-02 01:10:00,
2013-02-01 20:25:00,22.1,7.2,30.00,West,270,4.2,-999.0,52,-99.99,,,0.00,Acu-Link.com,2013-02-02 01:25:00,
2013-02-01 20:40:00,22.1,7.2,30.00,WSW,247,3.2,-999.0,52,-99.99,,,0.00,Acu-Link.com,2013-02-02 01:40:00,
2013-02-01 20:55:00,21.2,6.8,30.01,NW,315,3.7,-999.0,53,-99.99,,,0.00,Acu-Link.com,2013-02-02 01:55:00,
2013-02-01 21:10:00,21.2,6.4,30.02,East,90,1.1,-999.0,52,-99.99,,,0.00,Acu-Link.com,2013-02-02 02:10:00,
2013-02-01 21:25:00,20.8,6.4,30.02,WNW,292,7.3,-999.0,53,-99.99,,,0.00,Acu-Link.com,2013-02-02 02:25:00,
2013-02-01 21:40:00,20.5,6.1,30.02,WSW,247,1.1,-999.0,53,-99.99,,,0.00,Acu-Link.com,2013-02-02 02:40:00,
2013-02-01 21:55:00,20.5,6.1,30.03,ENE,67,1.1,-999.0,53,-99.99,,,0.00,Acu-Link.com,2013-02-02 02:55:00,
2013-02-01 22:11:00,19.9,6.8,30.03,WSW,247,0.0,-999.0,56,-99.99,,,0.00,Acu-Link.com,2013-02-02 03:11:00,
2013-02-01 22:26:00,19.8,7.1,30.03,SW,225,0.0,-999.0,57,-99.99,,,0.00,Acu-Link.com,2013-02-02 03:26:00,
2013-02-01 22:41:00,19.6,7.6,30.04,SW,225,1.1,-999.0,59,-99.99,,,0.00,Acu-Link.com,2013-02-02 03:41:00,
2013-02-01 22:56:00,19.4,7.8,30.05,SSW,202,3.7,-999.0,60,-99.99,,,0.00,Acu-Link.com,2013-02-02 03:56:00,
2013-02-01 23:11:00,19.4,8.5,30.05,SSE,157,0.0,-999.0,62,-99.99,,,0.00,Acu-Link.com,2013-02-02 04:11:00,
2013-02-01 23:26:00,19.2,8.7,30.05,ENE,67,1.1,-999.0,63,-99.99,,,0.00,Acu-Link.com,2013-02-02 04:26:00,
2013-02-01 23:41:00,18.9,8.8,30.06,NW,315,1.7,-999.0,64,-99.99,,,0.00,Acu-Link.com,2013-02-02 04:41:00,
2013-02-01 23:56:00,18.7,8.6,30.06,NW,315,0.0,-999.0,64,-99.99,,,0.00,Acu-Link.com,2013-02-02 04:56:00,